Location: Newark
(59.8814°N, 10.8258°E)
Time: 11:03:33
(UTC+00:00)

Envisat - Pass Details

Date: 01 February 2020
Orbit: 764 x 766 km, 98.1° (Epoch: 20 February)

Event Time Altitude Azimuth Distance (km) Brightness Sun altitude
Rises 16:31:38 0° 159° (SSE) 3,227 6.2 -7.7°
Reaches altitude 10° 16:33:56 10° 159° (SSE) 2,304 5.5 -7.9°
Maximum altitude 16:39:01 87° 73° (ENE) 777 3.0 -8.5°
Drops below altitude 10° 16:44:09 10° 343° (NNW) 2,318 5.5 -9.1°
Sets 16:46:28 0° 344° (NNW) 3,249 6.2 -9.4°
